Location: Cuiabá
(15.6014°S, 56.0979°W)
Time: 06:53:58
(UTC-04:00)

ISS - Pass Details

Date: 13 December 2023
Orbit: 415 x 422 km, 51.6° (Epoch: 25 February)

Event Time Altitude Azimuth Distance (km) Brightness Sun altitude
Rises 03:07:36 0° 195° (SSW) 2,390 0.3 -25.8°
Reaches altitude 10° 03:10:19 10° 172° (S) 1,513 -0.4 -25.3°
Maximum altitude 03:12:31 16° 132° (SE) 1,190 -0.6 -24.9°
Drops below altitude 10° 03:14:41 10° 92° (E) 1,495 -0.2 -24.5°
Sets 03:17:20 0° 69° (ENE) 2,347 0.5 -23.9°
